Simultaneous Nadir Overpasses (SNOs) Predictions

Prediction of SNOs between TERRA and METOP-C Satellite Orbit:

Table of predicted SNOs for the next 14.0 days since TLE Epoch: 11/23/2019
Index Date (TERRA) Time (TERRA) Lat,Lon (TERRA) SZA (TERRA ) Date (METOP-C) Time (METOP-C) Lat,Lon (METOP-C) SZA (METOP-C ) Distance(km) Time Diff (sec)
1 11/24/2019 20:47:07 81.34, -83.84 105.03 11/24/2019 20:46:34 81.33, -83.81 105.01 0.93 33
2 11/24/2019 21:36:34 -81.33, 83.75 74.98 11/24/2019 21:37:14 -81.33, 83.63 74.97 1.91 40
3 11/27/2019 16:21:24 81.34, -17.42 105.54 11/27/2019 16:20:55 81.33, -17.31 105.53 1.83 29
4 11/27/2019 17:10:51 -81.34, 150.20 74.47 11/27/2019 17:11:35 -81.33, 150.11 74.46 1.39 44
5 11/30/2019 11:55:41 81.33, 48.93 105.98 11/30/2019 11:55:16 81.33, 48.78 105.95 2.55 25
6 11/30/2019 12:45:08 -81.33,-143.43 74.02 11/30/2019 12:45:55 -81.33,-143.40 73.99 0.49 47
7 12/03/2019 07:30:00 81.32, 115.21 106.35 12/03/2019 07:29:37 81.33, 115.27 106.35 1.18 23
8 12/03/2019 08:19:27 -81.33, -77.13 73.64 12/03/2019 08:20:17 -81.33, -77.31 73.64 2.99 50
9 12/06/2019 03:04:19 81.33,-178.21 106.72 12/06/2019 03:03:58 81.33,-178.24 106.70 0.67 21




NCC Satellite Simultaneous Nadir Overpasses (SNOs) Prediction Service
